This is the latest recevied weather packets stored in our database for station/object KB9ZI. If no packets are shown the sender has not sent any weather packets the latest 10 day(s).
| Time | Temp. | Humidity | Pressure | Rain* | Wind** | Luminosity | Snow |
|---|---|---|---|---|---|---|---|
| 1777480083 | 11.11° C | 49% | 1018.4 hPa | 0 mm | - | - | - |
| 1777479985 | 11.67° C | 48% | 1018.6 hPa | 0 mm | - | - | - |
| 1777479953 | 11.67° C | 54% | 1018.6 hPa | 0 mm | - | - | - |
| 1777479724 | 11.11° C | 47% | 1018.6 hPa | 0 mm | - | - | - |
| 1777479603 | 11.11° C | 49% | 1018.6 hPa | 0 mm | - | - | - |
| 1777479484 | 10.56° C | 49% | 1018.4 hPa | 0 mm | - | - | - |
| 1777479406 | 10.56° C | 48% | 1018.4 hPa | 0 mm | - | - | - |
| 1777479375 | 10.56° C | 49% | 1018.6 hPa | 0 mm | - | - | - |
| 1777479120 | 10.56° C | 48% | 1018.6 hPa | 0 mm | - | - | - |
| 1777478988 | 10.56° C | 46% | 1018.4 hPa | 0 mm | - | - | - |
| 1777478866 | 11.11° C | 47% | 1018.6 hPa | 0 mm | - | - | - |
| 1777478745 | 11.11° C | 50% | 1018.6 hPa | 0 mm | - | - | - |
| 1777478625 | 11.11° C | 48% | 1018.6 hPa | 0 mm | - | - | - |
| 1777478506 | 11.11° C | 47% | 1018.6 hPa | 0 mm | - | - | - |
| 1777478381 | 11.11° C | 47% | 1018.6 hPa | 0 mm | - | - | - |
| 1777478266 | 11.11° C | 49% | 1018.7 hPa | 0 mm | - | - | - |
| 1777478142 | 11.67° C | 47% | 1018.7 hPa | 0 mm | - | - | - |
| 1777478022 | 11.11° C | 47% | 1018.8 hPa | 0 mm | - | - | - |
| 1777477962 | 10.56° C | 49% | 1018.7 hPa | 0 mm | - | - | - |
| 1777477778 | 10.56° C | 49% | 1018.8 hPa | 0 mm | - | - | - |
| 1777477654 | 11.11° C | 46% | 1018.7 hPa | 0 mm | - | - | - |
| 1777477535 | 11.11° C | 50% | 1018.7 hPa | 0 mm | - | - | - |
| 1777477418 | 11.11° C | 52% | 1018.7 hPa | 0 mm | - | - | - |
| 1777477292 | 10.56° C | 48% | 1018.8 hPa | 0 mm | - | - | - |
| 1777477174 | 10.56° C | 48% | 1018.8 hPa | 0 mm | - | - | - |
* Rain latest hour (hover to see other rain measurements)
** Current wind speed in m/s (hover to see current wind gust speed)